Flag for China Weather past 2 weeks in Tianjin, Tianjin Municipality, China

Now
55 °F

Clear.


Feels Like: 55 °F
Forecast: 50 / 65 °F
Wind: 1 mph from Southeast

Location: Tianjin / Zhangguizhu

Current Time: Sep 30, 2014 at 8:32:38 PM

Latest Report: Sep 30, 2014 at 8:00 PM


Visibility: 10 mi

Pressure: 30.18 "Hg

Humidity: 55%

Dew point: 39 °F

Location of TianjinLocation

Historic Weather in Tianjin — Graph

°F

Tianjin temperature yesterday

Maximum temperature yesterday: 72 °F (at 10:00 AM)
Minimum temperature yesterday: 52 °F (at 10:30 PM)
Average temperature yesterday: 63 °F

Past Weeks' High & Low Weather Summary

 TemperatureHumidityPressure
High81 °F (Sep 18, 1:30 PM)94% (Sep 18, 5:30 AM)30.39 "Hg (Sep 18, 5:30 AM)
Low48 °F (Sep 30, 2:30 AM)20% (Sep 18, 3:00 PM)29.77 "Hg (Sep 26, 2:00 PM)
Average67 °F68%30.03 "Hg
* Reported Sep 15 7:00 PM — Sep 30 7:30 PM, Tianjin, Weather by CustomWeather, © 2014

Note: Actual official high and low records may vary slightly from our data, if they occured in-between our weather recording intervals... More about our weather records

Advertising

Tianjin weather history for previous 24 hours

 ConditionsComfort  
Time TempWeatherWind HumidityBarometerVisibility
7:30 PM
Sep 30
55 °FClear.No wind44%30.18 "Hg10 mi
7:00 PM57 °FClear.No wind36%30.18 "Hg10 mi
6:30 PM57 °FClear.1 mph36%30.18 "Hg10 mi
6:00 PM59 °FClear.1 mph31%30.18 "Hg10 mi
5:30 PM59 °FSunny.3 mph31%30.21 "Hg10 mi
5:00 PM59 °FSunny.3 mph29%30.21 "Hg10 mi
4:30 PM61 °FPassing clouds.6 mph29%30.21 "HgN/A
4:00 PM61 °FPassing clouds.6 mph31%30.21 "HgN/A
3:30 PM61 °FSunny.3 mph29%30.24 "Hg10 mi
3:00 PM61 °FPassing clouds.3 mph29%30.24 "HgN/A
2:30 PM61 °FPassing clouds.3 mph29%30.24 "HgN/A
2:00 PM63 °FSunny.3 mph27%30.27 "Hg10 mi
1:30 PM61 °FSunny.3 mph27%30.30 "Hg10 mi
1:00 PM59 °FSunny.3 mph31%30.30 "Hg10 mi
12:30 PM59 °FSunny.1 mph31%30.33 "Hg10 mi
12:00 PM59 °FSunny.1 mph31%30.33 "Hg10 mi
11:30 AM57 °FSunny.3 mph33%30.36 "Hg10 mi
10:30 AM54 °FPassing clouds.3 mph38%30.39 "HgN/A
10:00 AM54 °FPassing clouds.6 mph35%30.39 "HgN/A
9:30 AM54 °FPassing clouds.6 mph35%30.39 "HgN/A
9:00 AM54 °FPassing clouds.6 mph38%30.39 "HgN/A
8:30 AM52 °FPassing clouds.10 mph38%30.39 "HgN/A
8:00 AM52 °FPassing clouds.6 mph44%30.39 "HgN/A
7:30 AM50 °FSunny.6 mph43%30.39 "Hg10 mi
7:00 AM50 °FSunny.6 mph47%30.39 "Hg10 mi
6:30 AM48 °FSunny.6 mph50%30.39 "Hg10 mi
6:00 AM50 °FClear.6 mph47%30.39 "Hg10 mi
5:30 AM50 °FClear.6 mph47%30.39 "Hg10 mi
5:00 AM48 °FClear.6 mph50%30.39 "Hg10 mi
4:30 AM48 °FClear.3 mph50%30.39 "Hg10 mi
4:00 AM48 °FClear.6 mph50%30.36 "Hg10 mi
3:30 AM48 °FClear.8 mph50%30.36 "Hg10 mi
3:00 AM48 °FClear.10 mph50%30.36 "Hg10 mi
2:30 AM48 °FClear.8 mph50%30.36 "Hg10 mi
2:00 AM50 °FClear.10 mph47%30.39 "Hg10 mi
1:30 AM50 °FClear.13 mph47%30.39 "Hg10 mi
1:00 AM50 °FClear.8 mph47%30.39 "Hg10 mi
12:30 AM50 °FClear.10 mph47%30.36 "Hg10 mi
12:00 AM50 °FClear.10 mph50%30.36 "Hg10 mi
11:30 PM
Sep 29
52 °FClear.13 mph47%30.36 "Hg10 mi
11:00 PM52 °FClear.15 mph47%30.36 "Hg10 mi
10:30 PM52 °FClear.15 mph47%30.36 "Hg10 mi
10:00 PM54 °FClear.10 mph47%30.36 "Hg10 mi
9:30 PM54 °FClear.13 mph47%30.33 "Hg10 mi
9:00 PM55 °FClear.15 mph44%30.30 "Hg10 mi
8:30 PM57 °FClear.15 mph44%30.30 "Hg10 mi
8:00 PM59 °FClear.13 mph45%30.27 "Hg10 mi
Weather by CustomWeather, © 2014

See weather overviewHow to use our weather pages